Location: Peebles
(55.6412°N, 3.1714°W)
Time: 09:16:06
(UTC+01:00)

SJ-6B - Pass Details

Date: 26 September 2021
Orbit: 508 x 581 km, 97.6° (Epoch: 20 October)

Event Time Altitude Azimuth Distance (km) Brightness Sun altitude
Exits shadow 20:41:56 11° 163° (SSE) 1,817 5.1 -14.9°
Maximum altitude 20:45:52 88° 75° (ENE) 584 2.8 -15.4°
Drops below altitude 10° 20:49:58 10° 346° (NNW) 1,882 6.0 -15.9°
Sets 20:52:06 0° 346° (NNW) 2,773 6.9 -16.2°
